Вернуться в каталог

QIANFAN-124

АктивенСвязьPO
NORAD 68651·PAYLOAD·🇨🇳 China

Запущен Apr 7, 2026 с Wenchang Space Launch Site

Loading…

Ближайшие Пролёты (ближайшие 24 часа)

TLE

СвежийSource: Space-Track

Эпоха: Sep 14, 2026, 21:04 UTC

1 68651U 26075R   26257.87779784  .00000062  00000-0  77189-4 0  9999
2 68651  88.9872 311.8379 0002281  87.8442 272.2970 13.51026521 21927

Отслеживайте QIANFAN-124 в реальном времени с AllMySat

Download on the App Store